CZ-2C R/B

Satellite information

Favourite Embed

Satellite Type and Status

ROCKET BODYIN ORBIT

Key statistics

Satellite CZ-2C R/B at a glance.

Uptime

6724

Days in orbit

Revolutions

≈ 14.2

Per day

Orbit

SSO

Sun Synchronous Orbit

Inclination

98.4

Latest

Satellite identification and parameters

Extended collection of information and parameters for CZ-2C R/B.

Object identification

Identified? True

Debris? False

Object name: CZ-2C R/B

International designator: 2007-010B

Object number (NORAD): 31114

Object ID (CCSDS): 31114

Country: PEOPLES REPUBLIC OF CHINA (PRC)

Current information (Y/N): Y

RCS size: LARGE

Orbital parameters

Period: 101.397 minutes

Inclination: 98.3881 deg

SMA: 7202.958 km

Apoapsis: 868.165 km

Periapsis: 781.481 km

RAAN: 7.4928 deg

Eccentricy: 0.00601724

Argument of periapsis: 108.3347 deg

Mean anomaly: 252.4389 deg

Mean motion: 14.20157142 rev/day

Mean motion (dot): 0.00000232 rev/day2

B* drag term: 0.00012548696 1/REarth

Two-line elements (TLE)

Creation date: Sept. 7, 2025, 3:09 a.m.

Reference frame: TEME

Reference center: EARTH

Epoch: Sept. 6, 2025, 9:58 p.m. UTC

TLE line 0: 0 CZ-2C R/B

TLE line 1: 1 31114U 07010B 25249.91561710 .00000232 00000-0 12549-3 0 9991

TLE line 2: 2 31114 98.3881 7.4928 0060172 108.3347 252.4389 14.20157142953637

Live tracking on map

Real-time ground track for satellite CZ-2C R/B.

In-orbit conjunctions

A list of the most updated potential collisions computed for object CZ-2C R/B.

Target Orbit TCA Probability of collision Miss distance Type
CZ-6A DEB LEO 2025-07-25 16:52:45 0.0004203301 181.0 (m) DEBRIS
CZ-6A DEB SSO 2025-03-04 13:01:00 0.0002134461 278.0 (m) DEBRIS

Associated space launch

Chinese oceanography satellite

CZ-2C R/B was lifted into orbit during the mission ‘Long March 2C | Hai Yang 1B’, on board a Long March 2 space rocket.

The launch took place on April 11, 2007, 3:27 a.m. from Launch Complex 7.

For more information about the launch, click the button.

Launch to space Long March 2C | Hai Yang 1B
Long March 2C | Hai Yang 1B

Agency: N/A

Status: Launch Successful

Launch date: April 11, 2007, 3:27 a.m. UTC

Rocket: Long March 2

Launch pad: Launch Complex 7

Location: Taiyuan Satellite Launch Center, People's Republic of China

...

Latest news about this satellite

There are no fresh news available about this satellite. Check back as we update our databases every day.


Newsletter sign-up

Weekly statistics, charts and insights to help you stay on top of the space industry.